Weather History for Pensacola NAS, FL

Change the Weather History Date:

Friday, May 31, 2013

  Actual Average Record
Temperature  
Mean Temperature 78 °F -  
Max Temperature 82 °F 83 °F 90 °F (2006)
Min Temperature 75 °F 68 °F 64 °F (2007)
Cooling Degree Days 14    
Growing Degree Days 28 (Base 50)    
Moisture  
Dew Point 72 °F    
Average Humidity 79    
Maximum Humidity 88    
Minimum Humidity 67    
Precipitation  
Precipitation 0.00 in - - ()
Sea Level Pressure  
Sea Level Pressure 30.04 in    
Wind  
Wind Speed 14 mph (SE)    
Max Wind Speed 18 mph    
Max Gust Speed 25 mph    
Visibility 10 miles    
Events      
Averages and records for this station are not official NWS values.
T = Trace of Precipitation, MM = Missing Value Source: NWS Daily Summary

Daily Weather History Graph

Daily Weather History Graph

Search for Another Location

Airport:

Trip Planner

Search our weather history database for the weather conditions in past years. The results will help you decide how hot, cold, wet, or windy it might be!

Date:

Astronomy

May. 31, 2013 Rise Set
Actual Time 5:48 AM CDT 7:46 PM CDT
Civil Twilight 5:20 AM CDT 8:13 PM CDT
Nautical Twilight 4:48 AM CDT 8:46 PM CDT
Astronomical Twilight 4:13 AM CDT 9:21 PM CDT
Moon 12:40 AM CDT (5/31) 12:41 PM CDT (5/31)
Length of Visible Light 14h 52m
Length of Day
13h 58m
Waning Gibbous, 51% of the Moon is Illuminated
May 31
Waning Gibbous
May 31
Last Quarter
Jun 8
New
Jun 16
First Quarter
Jun 23
Full

Hourly Weather History & Observations

Time (CDT) Temp. Heat Index Dew Point Humidity Pressure Visibility Wind Dir Wind Speed Gust Speed Precip Events Conditions
12:56 AM 77.0 °F - 72.0 °F 84% 30.05 in 10.0 mi SE 15.0 mph - N/A   Clear
1:56 AM 77.0 °F - 72.0 °F 84% 30.03 in 10.0 mi SE 13.8 mph - N/A   Scattered Clouds
2:56 AM 78.1 °F - 72.0 °F 81% 30.02 in 10.0 mi SE 10.4 mph - N/A   Overcast
3:56 AM 78.1 °F - 72.0 °F 81% 30.01 in 10.0 mi SE 13.8 mph - N/A   Overcast
4:56 AM 77.0 °F - 72.0 °F 84% 30.01 in 10.0 mi SE 12.7 mph - N/A   Mostly Cloudy
5:56 AM 77.0 °F - 73.0 °F 88% 30.02 in 10.0 mi SE 11.5 mph - N/A   Mostly Cloudy
6:56 AM 78.1 °F - 73.0 °F 84% 30.06 in 10.0 mi SE 10.4 mph - N/A   Mostly Cloudy
7:56 AM 79.0 °F - 72.0 °F 79% 30.06 in 10.0 mi ESE 17.3 mph 23.0 mph N/A   Mostly Cloudy
8:56 AM 81.0 °F 85.2 °F 72.0 °F 74% 30.07 in 10.0 mi ESE 17.3 mph - N/A   Mostly Cloudy
9:56 AM 81.0 °F 85.2 °F 72.0 °F 74% 30.08 in 10.0 mi SE 17.3 mph 23.0 mph N/A   Mostly Cloudy
10:56 AM 81.0 °F 85.2 °F 72.0 °F 74% 30.08 in 10.0 mi ESE 18.4 mph 25.3 mph N/A   Overcast
11:56 AM 81.0 °F 85.2 °F 72.0 °F 74% 30.07 in 10.0 mi ESE 18.4 mph 23.0 mph N/A   Overcast
1:56 PM 81.0 °F 85.2 °F 72.0 °F 74% 30.06 in 10.0 mi SE 15.0 mph - N/A   Mostly Cloudy
2:56 PM 82.9 °F 87.5 °F 71.1 °F 67% 30.04 in 10.0 mi SSE 15.0 mph 23.0 mph N/A   Mostly Cloudy
3:56 PM 82.9 °F 88.0 °F 72.0 °F 69% 30.04 in 10.0 mi SE 17.3 mph - N/A   Mostly Cloudy
4:56 PM 82.0 °F 86.7 °F 72.0 °F 71% 30.03 in 10.0 mi SE 15.0 mph - N/A   Mostly Cloudy
5:56 PM 81.0 °F 85.2 °F 72.0 °F 74% 30.02 in 10.0 mi ESE 13.8 mph - N/A   Mostly Cloudy
6:56 PM 77.0 °F - 72.0 °F 84% 30.03 in 10.0 mi SE 11.5 mph - N/A   Mostly Cloudy
7:56 PM 77.0 °F - 72.0 °F 84% 30.02 in 10.0 mi SE 9.2 mph - N/A   Mostly Cloudy
8:56 PM 75.9 °F - 72.0 °F 87% 30.02 in 10.0 mi SE 8.1 mph - N/A   Scattered Clouds
9:56 PM 75.9 °F - 72.0 °F 87% 30.02 in 10.0 mi SE 11.5 mph - N/A   Scattered Clouds